Time,TemperatureF,DewpointF,PressureIn,WindDirection,WindDirectionDegrees,WindSpeedMPH,WindSpeedGustMPH,Humidity,HourlyPrecipIn,Conditions,Clouds,dailyrainin,SolarRadiationWatts/m^2,SoftwareType,DateUTC
2013-01-30 00:03:00,63.0,62.0,-100.00,ESE,108,3.0,6.0,95,0.00,,,0.02,3.000000,,2013-01-30 05:03:00,
2013-01-30 00:11:00,63.0,62.0,-100.00,ESE,108,3.0,6.0,95,0.00,,,0.02,3.000000,,2013-01-30 05:11:00,
2013-01-30 00:22:00,63.0,62.0,-100.00,ESE,108,3.0,6.0,95,0.00,,,0.02,3.000000,,2013-01-30 05:22:00,
2013-01-30 00:32:00,63.0,62.0,-100.00,ESE,108,3.0,6.0,95,0.00,,,0.02,3.000000,,2013-01-30 05:32:00,
2013-01-30 00:52:00,63.0,62.0,-100.00,ENE,57,2.0,7.0,96,0.00,,,0.02,0.000000,,2013-01-30 05:52:00,
2013-01-30 01:02:00,63.0,62.0,-100.00,ENE,57,2.0,7.0,96,0.00,,,0.02,0.000000,,2013-01-30 06:02:00,
2013-01-30 01:11:00,63.0,62.0,-100.00,ENE,57,2.0,7.0,96,0.00,,,0.02,0.000000,,2013-01-30 06:11:00,
2013-01-30 01:21:00,63.0,62.0,-100.00,ENE,57,2.0,7.0,96,0.00,,,0.02,0.000000,,2013-01-30 06:21:00,
2013-01-30 01:31:00,63.0,62.0,-100.00,ENE,57,2.0,7.0,96,0.00,,,0.02,0.000000,,2013-01-30 06:31:00,
2013-01-30 02:01:00,61.0,60.0,-100.00,SE,131,3.0,8.0,95,0.00,,,0.02,0.000000,,2013-01-30 07:01:00,
2013-01-30 02:11:00,61.0,60.0,-100.00,SE,131,3.0,8.0,95,0.00,,,0.02,0.000000,,2013-01-30 07:11:00,
2013-01-30 02:21:00,61.0,60.0,-100.00,SE,131,3.0,8.0,95,0.00,,,0.02,0.000000,,2013-01-30 07:21:00,
2013-01-30 02:31:00,61.0,60.0,-100.00,SE,131,3.0,8.0,95,0.00,,,0.02,0.000000,,2013-01-30 07:31:00,
2013-01-30 03:01:00,63.0,62.0,-100.00,ESE,111,1.0,7.0,95,0.00,,,0.02,0.000000,,2013-01-30 08:01:00,
2013-01-30 03:11:00,63.0,62.0,-100.00,ESE,111,1.0,7.0,95,0.00,,,0.02,0.000000,,2013-01-30 08:11:00,
2013-01-30 03:21:00,63.0,62.0,-100.00,ESE,111,1.0,7.0,95,0.00,,,0.02,0.000000,,2013-01-30 08:21:00,
2013-01-30 03:32:00,63.0,62.0,-100.00,ESE,111,1.0,7.0,95,0.00,,,0.02,0.000000,,2013-01-30 08:32:00,
2013-01-30 04:01:00,63.0,62.0,-100.00,South,177,1.0,4.0,95,0.00,,,0.02,0.000000,,2013-01-30 09:01:00,
2013-01-30 04:11:00,63.0,62.0,-100.00,South,177,1.0,4.0,95,0.00,,,0.02,0.000000,,2013-01-30 09:11:00,
2013-01-30 04:21:00,63.0,62.0,-100.00,South,177,1.0,4.0,95,0.00,,,0.02,0.000000,,2013-01-30 09:21:00,
2013-01-30 04:31:00,63.0,62.0,-100.00,South,177,1.0,4.0,95,0.00,,,0.02,0.000000,,2013-01-30 09:31:00,
2013-01-30 05:01:00,61.0,60.0,-100.00,ESE,123,1.0,4.0,96,0.00,,,0.02,0.000000,,2013-01-30 10:01:00,
2013-01-30 05:11:00,61.0,60.0,-100.00,ESE,123,1.0,4.0,96,0.00,,,0.02,0.000000,,2013-01-30 10:11:00,
2013-01-30 05:21:00,61.0,60.0,-100.00,ESE,123,1.0,4.0,96,0.00,,,0.02,0.000000,,2013-01-30 10:21:00,
2013-01-30 05:31:00,61.0,60.0,-100.00,ESE,123,1.0,4.0,96,0.00,,,0.02,0.000000,,2013-01-30 10:31:00,
2013-01-30 06:02:00,61.0,60.0,-100.00,NE,34,2.0,4.0,97,0.00,,,0.02,0.000000,,2013-01-30 11:02:00,
2013-01-30 06:11:00,61.0,60.0,-100.00,NE,34,2.0,4.0,97,0.00,,,0.02,0.000000,,2013-01-30 11:11:00,
2013-01-30 06:21:00,61.0,60.0,-100.00,NE,34,2.0,4.0,97,0.00,,,0.02,0.000000,,2013-01-30 11:21:00,
2013-01-30 06:32:00,61.0,60.0,-100.00,NE,34,2.0,4.0,97,0.00,,,0.02,0.000000,,2013-01-30 11:32:00,
2013-01-30 07:02:00,61.0,60.0,-100.00,SE,144,2.0,5.0,98,0.00,,,0.02,0.000000,,2013-01-30 12:02:00,
2013-01-30 07:12:00,61.0,60.0,-100.00,SE,144,2.0,5.0,98,0.00,,,0.02,0.000000,,2013-01-30 12:12:00,
2013-01-30 07:22:00,61.0,60.0,-100.00,SE,144,2.0,5.0,98,0.00,,,0.02,0.000000,,2013-01-30 12:22:00,
2013-01-30 07:32:00,61.0,60.0,-100.00,SE,144,2.0,5.0,98,0.00,,,0.02,0.000000,,2013-01-30 12:32:00,
2013-01-30 08:02:00,61.0,60.0,-100.00,SSE,160,2.0,3.0,98,0.00,,,0.02,0.000000,,2013-01-30 13:02:00,
2013-01-30 08:12:00,61.0,60.0,-100.00,SSE,160,2.0,3.0,98,0.00,,,0.02,0.000000,,2013-01-30 13:12:00,
2013-01-30 08:22:00,61.0,60.0,-100.00,SSE,160,2.0,3.0,98,0.00,,,0.02,0.000000,,2013-01-30 13:22:00,
2013-01-30 08:32:00,61.0,60.0,-100.00,SSE,160,2.0,3.0,98,0.00,,,0.02,0.000000,,2013-01-30 13:32:00,
2013-01-30 09:02:00,61.0,61.0,-100.00,South,184,1.0,2.0,99,0.00,,,0.02,0.000000,,2013-01-30 14:02:00,
2013-01-30 09:11:00,61.0,61.0,-100.00,South,184,1.0,2.0,99,0.00,,,0.02,0.000000,,2013-01-30 14:11:00,
2013-01-30 09:22:00,61.0,61.0,-100.00,South,184,1.0,2.0,99,0.00,,,0.02,0.000000,,2013-01-30 14:22:00,
2013-01-30 09:32:00,61.0,61.0,-100.00,South,184,1.0,2.0,99,0.00,,,0.02,0.000000,,2013-01-30 14:32:00,
2013-01-30 10:03:00,61.0,61.0,-100.00,North,350,2.0,5.0,99,0.00,,,0.02,0.000000,,2013-01-30 15:03:00,
2013-01-30 10:12:00,61.0,61.0,-100.00,North,350,2.0,5.0,99,0.00,,,0.02,0.000000,,2013-01-30 15:12:00,
2013-01-30 10:22:00,61.0,61.0,-100.00,North,350,2.0,5.0,99,0.00,,,0.02,0.000000,,2013-01-30 15:22:00,
2013-01-30 10:32:00,61.0,61.0,-100.00,North,350,2.0,5.0,99,0.00,,,0.02,0.000000,,2013-01-30 15:32:00,
2013-01-30 11:03:00,60.0,60.0,-100.00,SW,222,4.0,6.0,99,0.00,,,0.02,0.000000,,2013-01-30 16:03:00,
2013-01-30 11:12:00,60.0,60.0,-100.00,SW,222,4.0,6.0,99,0.00,,,0.02,0.000000,,2013-01-30 16:12:00,
2013-01-30 11:22:00,60.0,60.0,-100.00,SW,222,4.0,6.0,99,0.00,,,0.02,0.000000,,2013-01-30 16:22:00,
2013-01-30 11:32:00,60.0,60.0,-100.00,SW,222,4.0,6.0,99,0.00,,,0.02,0.000000,,2013-01-30 16:32:00,
2013-01-30 11:52:00,60.0,60.0,-100.00,SSE,152,2.0,5.0,99,0.00,,,0.02,0.000000,,2013-01-30 16:52:00,
2013-01-30 12:02:00,60.0,60.0,-100.00,SSE,152,2.0,5.0,99,0.00,,,0.02,0.000000,,2013-01-30 17:02:00,
2013-01-30 12:12:00,60.0,60.0,-100.00,SSE,152,2.0,5.0,99,0.00,,,0.02,0.000000,,2013-01-30 17:12:00,
2013-01-30 12:22:00,60.0,60.0,-100.00,SSE,152,2.0,5.0,99,0.00,,,0.02,0.000000,,2013-01-30 17:22:00,
2013-01-30 12:31:00,60.0,60.0,-100.00,SSE,152,2.0,5.0,99,0.00,,,0.02,0.000000,,2013-01-30 17:31:00,
2013-01-30 13:02:00,60.0,60.0,-100.00,SE,125,2.0,4.0,99,0.00,,,0.02,5.000000,,2013-01-30 18:02:00,
2013-01-30 13:12:00,60.0,60.0,-100.00,SE,125,2.0,4.0,99,0.00,,,0.02,5.000000,,2013-01-30 18:12:00,
2013-01-30 13:22:00,60.0,60.0,-100.00,SE,125,2.0,4.0,99,0.00,,,0.02,5.000000,,2013-01-30 18:22:00,
2013-01-30 13:32:00,60.0,60.0,-100.00,SE,125,2.0,4.0,99,0.00,,,0.02,5.000000,,2013-01-30 18:32:00,
2013-01-30 14:02:00,64.0,64.0,-100.00,ESE,106,3.0,6.0,99,0.00,,,0.02,95.000000,,2013-01-30 19:02:00,
2013-01-30 14:12:00,64.0,64.0,-100.00,ESE,106,3.0,6.0,99,0.00,,,0.02,95.000000,,2013-01-30 19:12:00,
2013-01-30 14:22:00,64.0,64.0,-100.00,ESE,106,3.0,6.0,99,0.00,,,0.02,95.000000,,2013-01-30 19:22:00,
2013-01-30 14:32:00,64.0,64.0,-100.00,ESE,106,3.0,6.0,99,0.00,,,0.02,95.000000,,2013-01-30 19:32:00,
2013-01-30 15:03:00,72.0,63.0,-100.00,SE,129,2.0,8.0,73,0.00,,,0.02,478.000000,,2013-01-30 20:03:00,
2013-01-30 15:11:00,72.0,63.0,-100.00,SE,129,2.0,8.0,73,0.00,,,0.02,478.000000,,2013-01-30 20:11:00,
2013-01-30 15:22:00,72.0,63.0,-100.00,SE,129,2.0,8.0,73,0.00,,,0.02,478.000000,,2013-01-30 20:22:00,
2013-01-30 15:32:00,72.0,63.0,-100.00,SE,129,2.0,8.0,73,0.00,,,0.02,478.000000,,2013-01-30 20:32:00,
2013-01-30 16:03:00,69.0,61.0,-100.00,WNW,299,6.0,10.0,77,0.00,,,0.02,551.000000,,2013-01-30 21:03:00,
2013-01-30 16:12:00,69.0,61.0,-100.00,WNW,299,6.0,10.0,77,0.00,,,0.02,551.000000,,2013-01-30 21:12:00,
2013-01-30 16:22:00,69.0,61.0,-100.00,WNW,299,6.0,10.0,77,0.00,,,0.02,551.000000,,2013-01-30 21:22:00,
2013-01-30 16:32:00,69.0,61.0,-100.00,WNW,299,6.0,10.0,77,0.00,,,0.02,551.000000,,2013-01-30 21:32:00,
2013-01-30 16:52:00,70.0,63.0,-100.00,NW,321,5.0,11.0,78,0.00,,,-99.99,454.000000,,2013-01-30 21:52:00,
2013-01-30 17:02:00,70.0,63.0,-100.00,NW,321,5.0,11.0,78,0.00,,,-99.99,454.000000,,2013-01-30 22:02:00,
2013-01-30 17:11:00,70.0,63.0,-100.00,NW,321,5.0,11.0,78,0.00,,,-99.99,454.000000,,2013-01-30 22:11:00,
2013-01-30 17:22:00,70.0,63.0,-100.00,NW,321,5.0,11.0,78,0.00,,,-99.99,454.000000,,2013-01-30 22:22:00,
2013-01-30 17:32:00,70.0,63.0,-100.00,NW,321,5.0,11.0,78,0.00,,,-99.99,454.000000,,2013-01-30 22:32:00,
2013-01-30 18:02:00,68.0,62.0,-100.00,WNW,294,4.0,10.0,81,0.00,,,0.02,492.000000,,2013-01-30 23:02:00,
2013-01-30 18:11:00,68.0,62.0,-100.00,WNW,294,4.0,10.0,81,0.00,,,0.02,492.000000,,2013-01-30 23:11:00,
2013-01-30 18:22:00,68.0,62.0,-100.00,WNW,294,4.0,10.0,81,0.00,,,0.02,492.000000,,2013-01-30 23:22:00,
2013-01-30 18:32:00,68.0,62.0,-100.00,WNW,294,4.0,10.0,81,0.00,,,0.02,492.000000,,2013-01-30 23:32:00,
2013-01-30 19:02:00,67.0,63.0,-100.00,WNW,286,3.0,10.0,87,0.00,,,0.02,307.000000,,2013-01-31 00:02:00,
2013-01-30 19:11:00,67.0,63.0,-100.00,WNW,286,3.0,10.0,87,0.00,,,0.02,307.000000,,2013-01-31 00:11:00,
2013-01-30 19:21:00,67.0,63.0,-100.00,WNW,286,3.0,10.0,87,0.00,,,0.02,307.000000,,2013-01-31 00:21:00,
2013-01-30 19:31:00,67.0,63.0,-100.00,WNW,286,3.0,10.0,87,0.00,,,0.02,307.000000,,2013-01-31 00:31:00,
2013-01-30 19:53:00,72.0,63.0,-100.00,West,267,3.0,5.0,74,0.00,,,0.01,634.000000,,2013-01-31 00:53:00,
2013-01-30 20:02:00,72.0,63.0,-100.00,West,267,3.0,5.0,74,0.00,,,0.01,634.000000,,2013-01-31 01:02:00,
2013-01-30 20:11:00,72.0,63.0,-100.00,West,267,3.0,5.0,74,0.00,,,0.01,634.000000,,2013-01-31 01:11:00,
2013-01-30 20:21:00,72.0,63.0,-100.00,West,267,3.0,5.0,74,0.00,,,0.01,634.000000,,2013-01-31 01:21:00,
2013-01-30 20:31:00,72.0,63.0,-100.00,West,267,3.0,5.0,74,0.00,,,0.01,634.000000,,2013-01-31 01:31:00,
2013-01-30 21:01:00,69.0,63.0,-100.00,NW,309,7.0,13.0,80,0.00,,,0.00,429.000000,,2013-01-31 02:01:00,
2013-01-30 21:11:00,69.0,63.0,-100.00,NW,309,7.0,13.0,80,0.00,,,0.00,429.000000,,2013-01-31 02:11:00,
2013-01-30 21:21:00,69.0,63.0,-100.00,NW,309,7.0,13.0,80,0.00,,,0.00,429.000000,,2013-01-31 02:21:00,
2013-01-30 21:32:00,69.0,63.0,-100.00,NW,309,7.0,13.0,80,0.00,,,0.00,429.000000,,2013-01-31 02:32:00,
2013-01-30 22:02:00,67.0,64.0,-100.00,NNW,330,5.0,13.0,91,0.00,,,0.00,139.000000,,2013-01-31 03:02:00,
2013-01-30 22:11:00,67.0,64.0,-100.00,NNW,330,5.0,13.0,91,0.00,,,0.00,139.000000,,2013-01-31 03:11:00,
2013-01-30 22:21:00,67.0,64.0,-100.00,NNW,330,5.0,13.0,91,0.00,,,0.00,139.000000,,2013-01-31 03:21:00,
2013-01-30 22:31:00,67.0,64.0,-100.00,NNW,330,5.0,13.0,91,0.00,,,0.00,139.000000,,2013-01-31 03:31:00,
2013-01-30 23:02:00,64.0,62.0,-100.00,NNW,338,4.0,9.0,93,0.00,,,0.00,79.000000,,2013-01-31 04:02:00,
2013-01-30 23:11:00,64.0,62.0,-100.00,NNW,338,4.0,9.0,93,0.00,,,0.00,79.000000,,2013-01-31 04:11:00,
2013-01-30 23:22:00,64.0,62.0,-100.00,NNW,338,4.0,9.0,93,0.00,,,0.00,79.000000,,2013-01-31 04:22:00,
2013-01-30 23:31:00,64.0,62.0,-100.00,NNW,338,4.0,9.0,93,0.00,,,0.00,79.000000,,2013-01-31 04:31:00,